[[{"header":{"parameterUnit":"m.s-1","parameterCategory":1,"la1":30.2991,"la2":30.254,"lo1":-89.0895,"lo2":-89.0444,"dy":0.0017,"dx":0.0017,"nx":28,"ny":28,"refTime":"2025-04-08T21:00:00:Z","depth":0,"parameterNumber":2,"parameterNumberName":"U-component_of_WINDS"},"data":[0,0,0,0,0,0,0,0,0,0,0,0,0,0,0,0,0,0,0,0,0,0,0,0,0,0,0,0,0,0,0,0,0,0,0,0,0,0,0,0,0,0,0,0,0,0,0,0,0,0,0,0,0,0,0,0,0,0,-0.466,-0.4661,0,-0.4771,-0.4772,-0.4773,-0.4767,-0.4766,-0.4764,-0.4763,-0.4883,-0.4887,-0.4892,0,0,0,0,0,0,0,0,0,0,0,0,0,-0.4448,-0.4452,-0.466,-0.4661,-0.4662,-0.4771,-0.4772,-0.4774,-0.4768,-0.4766,-0.4764,-0.4762,-0.4881,-0.4887,-0.4892,0,0,0,0,0,0,0,0,0,0,0,0,0,-0.4548,-0.4453,-0.4659,-0.4672,-0.4675,-0.477,-0.4772,-0.4774,-0.4768,-0.4766,-0.4763,-0.4761,-0.4879,-0.4886,-0.4893,-0.4985,0,0,-0.4915,-0.4918,0,0,0,0,0,0,0,0,-0.4542,-0.4555,-0.4669,-0.4672,-0.4674,-0.4753,-0.4741,-0.4845,-0.4769,-0.4733,-0.4763,-0.476,-0.4842,-0.4852,-0.4878,-0.4991,-0.4996,-0.4915,-0.4919,-0.4922,-0.4924,0,0,0,0,0,0,0,-0.4535,-0.4551,-0.4704,-0.4671,-0.4674,-0.4674,-0.4686,-0.4761,-0.48,-0.4736,-0.4736,-0.4748,-0.4843,-0.4871,-0.4881,-0.4998,-0.4915,-0.4921,-0.4926,-0.4928,-0.5191,-0.5194,0,0,0,0,0,0,-0.4524,-0.4545,-0.47,-0.4707,-0.4601,-0.468,-0.4693,-0.473,-0.4799,-0.4807,-0.475,-0.4748,-0.486,-0.4873,-0.4885,-0.4998,-0.4922,-0.4929,-0.4933,-0.5189,-0.5192,-0.5195,0,0,0,0,0,0,-0.452,-0.4538,-0.4696,-0.4626,-0.4646,-0.4686,-0.4728,-0.4734,-0.4762,-0.481,-0.4817,-0.4772,-0.4859,-0.4875,-0.496,-0.5002,-0.4932,-0.4939,-0.5185,-0.519,-0.5194,-0.5224,0,0,0,0,0,0,-0.4514,-0.4537,-0.4571,-0.4627,-0.465,-0.4767,-0.4731,-0.4737,-0.4773,-0.4771,-0.4832,-0.484,-0.4858,-0.4949,-0.4967,-0.501,-0.4944,-0.5182,-0.5187,-0.5192,-0.5219,-0.5228,-0.5236,0,0,0,0,0,-0.4506,-0.4577,-0.4573,-0.4592,-0.4693,-0.477,-0.4783,-0.4801,-0.4777,-0.4813,-0.4843,-0.4838,-0.4994,-0.4958,-0.4978,-0.5024,-0.5179,-0.5186,-0.5192,-0.5216,-0.5227,-0.5236,0,0,0,0,0,0,-0.4528,-0.4584,-0.4581,-0.4671,-0.4715,-0.4769,-0.4814,-0.4812,-0.4866,-0.4862,-0.4884,-0.4898,-0.4983,-0.5012,-0.4971,-0.5117,-0.5084,-0.5094,-0.5095,-0.5106,-0.5114,-0.5107,-0.495,0,0,0,0,0,-0.4542,-0.4598,-0.4645,-0.472,-0.4742,-0.4774,-0.4808,-0.4818,-0.4866,-0.4885,-0.4922,-0.497,-0.503,-0.5069,-0.5127,-0.5222,-0.5237,-0.5264,-0.5273,-0.5279,-0.5289,-0.5342,-0.5355,-0.5215,-0.5215,-0.5215,0,0,-0.4574,-0.4612,-0.4646,-0.4725,-0.4761,-0.482,-0.479,-0.4854,-0.4898,-0.4896,-0.4978,-0.5006,-0.5061,-0.5152,-0.5194,-0.5179,-0.533,-0.5287,-0.5292,-0.5298,-0.535,-0.5363,-0.5375,-0.522,-0.5219,-0.5218,0,0,-0.4663,-0.4696,-0.4762,-0.4798,-0.4851,-0.4871,-0.4887,-0.4941,-0.4959,-0.5041,-0.504,-0.5093,-0.5196,-0.5235,-0.5269,-0.537,-0.5368,-0.5388,-0.5434,-0.5486,-0.5497,-0.5507,-0.5544,-0.5557,-0.5397,-0.5397,-0.5397,0,-0.4696,-0.4783,-0.4797,-0.4861,-0.4896,-0.4893,-0.4961,-0.4996,-0.5066,-0.5091,-0.5072,-0.52,-0.5237,-0.5337,-0.5362,-0.5388,-0.5409,-0.5383,-0.5494,-0.5504,-0.5513,-0.5549,-0.5563,-0.54,-0.5399,-0.5399,-0.5399,0,-0.4823,-0.4883,-0.493,-0.4995,-0.5036,-0.5102,-0.5127,-0.5166,-0.5171,-0.5194,-0.5278,-0.5322,-0.5388,-0.5412,-0.5419,-0.5514,-0.5503,-0.5488,-0.5456,-0.5529,-0.5563,-0.5577,-0.5403,-0.5402,-0.5401,-0.5401,0,0,-0.4931,-0.5,-0.5018,-0.5047,-0.5105,-0.5153,-0.5218,-0.5281,-0.5315,-0.5363,-0.542,-0.5506,-0.5492,-0.553,-0.5541,-0.5586,-0.5665,-0.5567,-0.5569,-0.5585,-0.5773,-0.5785,-0.58,-0.5663,-0.5666,-0.5668,-0.5769,0,-0.5026,-0.514,-0.5154,-0.5257,-0.5313,-0.531,-0.5367,-0.541,-0.5433,-0.5485,-0.5511,-0.5572,-0.5549,-0.5572,-0.5616,-0.5646,-0.5704,-0.5639,-0.5718,-0.5721,-0.5706,-0.5818,-0.5831,-0.5925,-0.5782,-0.5785,-0.5786,0,-0.5154,-0.5203,-0.5311,-0.5359,-0.5384,-0.5435,-0.5493,-0.5542,-0.5591,-0.5604,-0.5645,-0.565,-0.572,-0.5682,-0.5779,-0.5735,-0.5768,-0.5787,-0.5791,-0.5801,-0.576,-0.5833,-0.5955,-0.5969,-0.5807,-0.5806,-0.5804,0,-0.5223,-0.5317,-0.5393,-0.5418,-0.5477,-0.5513,-0.554,-0.5585,-0.5621,-0.5673,-0.5697,-0.5756,-0.579,-0.5836,-0.5857,-0.5828,-0.5953,-0.5918,-0.5968,-0.5968,-0.5997,-0.5995,-0.6128,-0.6015,-0.6015,-0.6014,-0.6014,0,-0.533,-0.5397,-0.5425,-0.5472,-0.5547,-0.5562,-0.5636,-0.5661,-0.5701,-0.5754,-0.5755,-0.5806,-0.583,-0.5884,-0.5901,-0.5979,-0.5994,-0.6008,-0.6013,-0.601,-0.6008,-0.6033,-0.6028,-0.6018,-0.6017,-0.6017,-0.6016,0,-0.5422,-0.5443,-0.5526,-0.5574,-0.5587,-0.5641,-0.5682,-0.5729,-0.5749,-0.5817,-0.5834,-0.5868,-0.5932,-0.5957,-0.6036,-0.6047,-0.6138,-0.6136,-0.6121,-0.6123,-0.6173,-0.6168,-0.6328,-0.635,-0.622,-0.6222,-0.6223,0,-0.549,-0.5541,-0.5593,-0.5627,-0.5654,-0.571,-0.5747,-0.5763,-0.5802,-0.5859,-0.5899,-0.5962,-0.6014,-0.6117,-0.615,-0.621,-0.6211,-0.6262,-0.622,-0.6215,-0.6214,-0.6211,-0.6217,-0.6271,-0.6272,-0.6273,-0.6274,0,-0.5609,-0.5616,-0.5667,-0.5723,-0.5765,-0.581,-0.5854,-0.5883,-0.5906,-0.5949,-0.6013,-0.6053,-0.6132,-0.6195,-0.6257,-0.6286,-0.6285,-0.6286,-0.6302,-0.6301,-0.629,-0.6298,-0.6144,-0.6284,-0.6283,-0.6282,-0.6282,-0.6281,-0.5692,-0.5737,-0.578,-0.5837,-0.5871,-0.5911,-0.5957,-0.5983,-0.6036,-0.61,-0.6106,-0.6176,-0.6222,-0.6304,-0.6336,-0.6392,-0.6378,-0.64,-0.6406,-0.6412,-0.6416,-0.6279,-0.6403,-0.6403,-0.6402,-0.6402,-0.6402,0,-0.5812,-0.5839,-0.5891,-0.5951,-0.5996,-0.5987,-0.6035,-0.6074,-0.6134,-0.6176,-0.6226,-0.63,-0.6361,-0.6397,-0.6459,-0.6496,-0.6498,-0.6512,-0.6511,-0.6518,-0.6423,-0.6405,-0.651,-0.651,-0.651,-0.651,-0.651,-0.651,-0.588,-0.5956,-0.5968,-0.606,-0.6087,-0.6153,-0.6181,-0.6219,-0.6252,-0.6334,-0.6384,-0.6406,-0.6446,-0.651,-0.6566,-0.6576,-0.6599,-0.6615,-0.6624,-0.6536,-0.6525,-0.6514,-0.6497,-0.662,-0.662,-0.6714,-0.6715,-0.6716]},{"header":{"parameterUnit":"m.s-1","parameterCategory":1,"la1":30.2991,"la2":30.254,"lo1":-89.0895,"lo2":-89.0444,"dy":0.0017,"dx":0.0017,"nx":28,"ny":28,"refTime":"2025-04-08T21:00:00:Z","depth":0,"parameterNumber":3,"parameterNumberName":"V-component_of_WINDS"},"data":[0,0,0,0,0,0,0,0,0,0,0,0,0,0,0,0,0,0,0,0,0,0,0,0,0,0,0,0,0,0,0,0,0,0,0,0,0,0,0,0,0,0,0,0,0,0,0,0,0,0,0,0,0,0,0,0,0,0,-4.644,-4.6441,0,-4.6558,-4.6559,-4.6561,-4.6486,-4.6482,-4.6479,-4.6475,-4.6593,-4.6599,-4.6605,0,0,0,0,0,0,0,0,0,0,0,0,0,-4.6144,-4.615,-4.644,-4.6441,-4.6443,-4.6558,-4.6559,-4.6561,-4.6486,-4.6482,-4.6478,-4.6474,-4.6591,-4.6598,-4.6606,0,0,0,0,0,0,0,0,0,0,0,0,0,-4.6269,-4.6152,-4.6439,-4.6419,-4.6419,-4.6557,-4.6559,-4.6561,-4.6487,-4.6482,-4.6477,-4.6472,-4.6588,-4.6597,-4.6607,-4.6771,0,0,-4.6636,-4.664,0,0,0,0,0,0,0,0,-4.6262,-4.628,-4.6421,-4.6421,-4.6421,-4.6502,-4.6498,-4.6631,-4.6488,-4.6461,-4.6475,-4.6469,-4.6566,-4.6577,-4.6611,-4.6776,-4.6781,-4.6637,-4.6643,-4.6647,-4.665,0,0,0,0,0,0,0,-4.6253,-4.6274,-4.6486,-4.6423,-4.6423,-4.6403,-4.6415,-4.6523,-4.6542,-4.6463,-4.6458,-4.6473,-4.6565,-4.6602,-4.6613,-4.6783,-4.6637,-4.6645,-4.6651,-4.6655,-4.7086,-4.7091,0,0,0,0,0,0,-4.6247,-4.6267,-4.6482,-4.649,-4.6327,-4.6412,-4.6426,-4.6481,-4.654,-4.6544,-4.6477,-4.6469,-4.6588,-4.6602,-4.6617,-4.6812,-4.6647,-4.6656,-4.6661,-4.708,-4.7087,-4.7093,0,0,0,0,0,0,-4.6241,-4.6267,-4.6478,-4.6377,-4.6403,-4.6423,-4.6486,-4.6486,-4.6523,-4.6551,-4.6554,-4.6512,-4.6585,-4.6604,-4.6733,-4.6815,-4.666,-4.6669,-4.7074,-4.7082,-4.709,-4.7203,0,0,0,0,0,0,-4.6233,-4.6265,-4.6329,-4.6379,-4.6408,-4.6594,-4.6491,-4.6492,-4.654,-4.653,-4.6584,-4.6588,-4.6582,-4.6719,-4.6742,-4.6825,-4.6676,-4.7066,-4.7077,-4.7088,-4.7192,-4.7215,-4.7234,0,0,0,0,0,-4.6222,-4.6356,-4.6333,-4.6359,-4.6489,-4.6599,-4.6615,-4.6606,-4.6547,-4.661,-4.6628,-4.6586,-4.6802,-4.6733,-4.6759,-4.6845,-4.7061,-4.7074,-4.7087,-4.7183,-4.721,-4.7233,0,0,0,0,0,0,-4.6314,-4.6362,-4.6337,-4.6491,-4.6541,-4.6586,-4.6666,-4.6636,-4.6703,-4.6691,-4.6676,-4.6689,-4.6824,-4.6847,-4.677,-4.7006,-4.6922,-4.694,-4.6986,-4.7012,-4.7033,-4.7024,-4.6684,0,0,0,0,0,-4.6352,-4.6438,-4.6475,-4.6607,-4.6634,-4.6646,-4.6693,-4.6682,-4.6733,-4.6754,-4.6781,-4.6831,-4.691,-4.6962,-4.7036,-4.7195,-4.7204,-4.7267,-4.7288,-4.7304,-4.7321,-4.7405,-4.7432,-4.7136,-4.7135,-4.7135,0,0,-4.6431,-4.6468,-4.6524,-4.6626,-4.6664,-4.6752,-4.6664,-4.6761,-4.6826,-4.6768,-4.6892,-4.6914,-4.6968,-4.7113,-4.7177,-4.7136,-4.7405,-4.7321,-4.7334,-4.7341,-4.7421,-4.7449,-4.7474,-4.7144,-4.7143,-4.7141,0,0,-4.6621,-4.6659,-4.6772,-4.6812,-4.687,-4.6877,-4.6904,-4.6953,-4.6965,-4.709,-4.7047,-4.7123,-4.7259,-4.73,-4.7338,-4.7541,-4.7505,-4.7565,-4.7674,-4.7756,-4.7779,-4.78,-4.7871,-4.7897,-4.7582,-4.7582,-4.7582,0,-4.6712,-4.6845,-4.6834,-4.6935,-4.698,-4.6932,-4.7046,-4.7084,-4.7163,-4.7195,-4.7148,-4.7317,-4.7351,-4.7503,-4.7552,-4.7585,-4.7614,-4.756,-4.7777,-4.7797,-4.7817,-4.7885,-4.7912,-4.7589,-4.7588,-4.7587,-4.7587,0,-4.6954,-4.7046,-4.7131,-4.721,-4.7264,-4.7371,-4.7374,-4.7431,-4.7414,-4.7425,-4.7551,-4.7589,-4.767,-4.7705,-4.7689,-4.7855,-4.7827,-4.7779,-4.7694,-4.7852,-4.7916,-4.7942,-4.7599,-4.7596,-4.7594,-4.7592,0,0,-4.7206,-4.7276,-4.7307,-4.7342,-4.7402,-4.7472,-4.7575,-4.7655,-4.7703,-4.7759,-4.7844,-4.796,-4.7915,-4.7959,-4.7947,-4.8019,-4.8176,-4.7961,-4.7962,-4.8,-4.8359,-4.8395,-4.8425,-4.8152,-4.8157,-4.8161,-4.8354,0,-4.7399,-4.7582,-4.7574,-4.7743,-4.7828,-4.7782,-4.7871,-4.7917,-4.7929,-4.8001,-4.8014,-4.8096,-4.8031,-4.8057,-4.8126,-4.8142,-4.8248,-4.8128,-4.823,-4.8233,-4.8218,-4.8459,-4.8498,-4.8678,-4.8379,-4.8383,-4.8386,0,-4.765,-4.7715,-4.7893,-4.7939,-4.7974,-4.8055,-4.8126,-4.8196,-4.8246,-4.8249,-4.8298,-4.8274,-4.8376,-4.8288,-4.8428,-4.8347,-4.8388,-4.8402,-4.8408,-4.8418,-4.832,-4.8474,-4.8736,-4.8763,-4.8425,-4.8422,-4.8419,0,-4.7816,-4.7947,-4.8071,-4.8101,-4.8158,-4.8216,-4.8242,-4.8287,-4.8334,-4.8396,-4.8426,-4.8498,-4.8538,-4.8594,-4.8589,-4.8526,-4.8731,-4.8643,-4.8735,-4.8736,-4.8781,-4.8778,-4.9053,-4.8808,-4.8807,-4.8807,-4.8806,0,-4.8032,-4.8143,-4.8146,-4.8222,-4.8344,-4.8332,-4.8452,-4.8472,-4.8511,-4.8589,-4.8553,-4.8626,-4.8616,-4.8688,-4.8685,-4.8801,-4.8819,-4.8823,-4.8821,-4.8827,-4.8827,-4.8854,-4.8841,-4.8814,-4.8812,-4.8811,-4.881,0,-4.8239,-4.8245,-4.8376,-4.8419,-4.8432,-4.852,-4.8556,-4.8627,-4.8635,-4.8734,-4.8756,-4.8769,-4.8853,-4.8853,-4.8949,-4.8946,-4.9088,-4.9071,-4.9072,-4.9068,-4.9161,-4.9152,-4.9463,-4.9502,-4.9231,-4.9234,-4.9236,0,-4.8377,-4.8461,-4.8513,-4.8563,-4.8592,-4.8673,-4.8722,-4.8712,-4.8764,-4.8825,-4.8889,-4.8969,-4.9033,-4.9168,-4.9185,-4.9257,-4.9242,-4.9346,-4.9253,-4.9255,-4.9243,-4.9238,-4.9246,-4.9364,-4.9367,-4.937,-4.9372,0,-4.8621,-4.862,-4.8692,-4.8765,-4.8824,-4.8881,-4.8933,-4.8975,-4.8971,-4.903,-4.9116,-4.9166,-4.9263,-4.9343,-4.9412,-4.9436,-4.9404,-4.9401,-4.9426,-4.9433,-4.9429,-4.9432,-4.9121,-4.9394,-4.9392,-4.939,-4.9389,-4.9388,-4.8798,-4.887,-4.8917,-4.8998,-4.9036,-4.9086,-4.9154,-4.9171,-4.9243,-4.9322,-4.9311,-4.9406,-4.9451,-4.9541,-4.9571,-4.9644,-4.9608,-4.9644,-4.9654,-4.9663,-4.9673,-4.9418,-4.9657,-4.9656,-4.9655,-4.9655,-4.9654,0,-4.904,-4.9068,-4.9142,-4.9217,-4.928,-4.9243,-4.9299,-4.9353,-4.9438,-4.9483,-4.9547,-4.9644,-4.972,-4.9743,-4.9816,-4.987,-4.9857,-4.989,-4.9886,-4.9892,-4.9702,-4.9672,-4.9899,-4.9899,-4.9899,-4.9899,-4.9899,-4.9899,-4.9174,-4.9293,-4.9297,-4.9435,-4.9461,-4.9555,-4.9589,-4.9634,-4.967,-4.978,-4.9844,-4.9858,-4.9894,-4.9969,-5.0037,-5.0042,-5.007,-5.0109,-5.0108,-4.993,-4.9905,-4.9882,-4.9854,-5.0116,-5.0116,-5.0292,-5.0293,-5.0295]}]]